SCOUT A DEB, 3591

Orbit data source: Space-Track

SCOUT A DEB, 3591 is space debris in LEO originally from a launch on Thu, 19 May 1966 UTC launched from the Air Force Western Test Range (AFWTR). Debris objects in space refer to the collection of defunct objects orbiting the Earth. Examples of debris include non-operational satellites, rocket bodies, and fragments generated from explosions, collisions, or faulty payload assembly.

Loading next visibility...
Identifier
3591, 1966-041E
Orbit
LEO
Country
Flag of USUS
Related business
Manufacturer
Unknown
Mission
Spacecraft
Bus & Motor
Unknown
Mass
Unknown
Launch date (UTC)
1966-05-19 (60 years ago)
Launch vehicle
Unknown
Launch site
Air Force Western Test Range (AFWTR)
Object type
Payload
Rocket body
Debris
Shape & HBR
Unknown shape, 0.2 m
Radar Cross Section
Small (<0.1 m²)

Expand to show TLE details & history
Last TLE update: 10 hours ago

TLE from 10 hours ago
0 SCOUT A DEB
1  3591U 66041E   26124.11551573  .00000148  00000-0  85115-4 0  9995
2  3591  90.2204  81.4595 0079936 271.3037  87.8988 14.04082250 61209
Epoch: 2026-05-04T02:46Z
TLE epoch observation values (Epoch: 2026-05-04T02:46:20.559Z)
Latitude
0.00003°
Longitude
177.86449°
Altitude
881.061 km
Speed
7.413 km/s
True Right ascension
05h 25m 50s
True Declination
0° 00' 00"
Sunlit
Object was in daylight at epoch
Visualization orbit readout
Latitude
Unknown
Longitude
Unknown
Altitude
Unknown
Speed
Unknown
Apparent Right ascension
Unknown
Apparent Declination
Unknown
Sunlit
N/A
Visualization observer readout
Local Sidereal Time
20:35:39
Azimuth
Unknown
Elevation
Unknown
Doppler factor
Unknown
Orbital elements
Apogee altitude
934.656 km
Perigee altitude
818.672 km
Semi-major axis
7,254.801 km
Eccentricity
0.00799
Inclination
90.2204°
RAAN
81.4595°
Arg. of periapsis
271.3037°
True anomaly
88.81448°
Mean anomaly
87.8988°
Eccentric anomaly
88.35661°
Mean motion
3.51241 °/min
Orbital period
102.49 mins
BSTAR
0.000085115
Loading maneuver chart data...
Computing Atmospheric mass density...
Loading historical data...
Loading historical data...
Loading historical data...
Loading historical data...
Loading historical data...
Loading historical data...
Loading historical data...

Documentation

Showing up to 5 results
|